{"data":{"norad_id":61676,"epoch":"2026-09-21T16:09:22.569696Z","epoch_age_seconds":86855,"freshness":"FRESH","line1":"1 61676U 24193R   26264.67317789  .00000325  00000+0  20749-4 0  9998","line2":"2 61676  53.1591 256.3522 0001254  78.4467 281.6676 15.34392022106593","mean_motion":15.34392022,"eccentricity":0.0001254,"inclination_deg":53.1591,"raan_deg":256.3522,"arg_perigee_deg":78.4467,"mean_anomaly_deg":281.6676,"bstar":2.0749e-5,"rev_number":10659,"period_min":93.848246038391,"perigee_km":461.86910826748,"apogee_km":463.58479694679,"semimajor_km":6840.8639526071,"source":"CELESTRAK","updated_at":"2026-09-22T09:00:49.402900Z"}}